[[{"header":{"parameterUnit":"m.s-1","parameterCategory":1,"la1":30.2991,"la2":30.254,"lo1":-89.0895,"lo2":-89.0444,"dy":0.0017,"dx":0.0017,"nx":28,"ny":28,"refTime":"2024-08-11T21:00:00:Z","depth":0,"parameterNumber":2,"parameterNumberName":"U-component_of_WINDS"},"data":[0,0,0,0,0,0,0,0,0,0,0,0,0,0,0,0,0,0,0,0,0,0,0,0,0,0,0,0,0,0,0,0,0,0,0,0,0,0,0,0,0,0,0,0,0,0,0,0,0,0,0,0,0,0,0,0,0,0,1.2153,1.2151,0,1.2023,1.2022,1.202,1.1854,1.1851,1.1848,1.1846,1.1714,1.1713,1.1712,0,0,0,0,0,0,0,0,0,0,0,0,0,1.2259,1.2258,1.2153,1.2151,1.2149,1.2023,1.2021,1.202,1.1854,1.1851,1.1848,1.1845,1.1715,1.1714,1.1712,0,0,0,0,0,0,0,0,0,0,0,0,0,1.218,1.2258,1.2153,1.2052,1.2041,1.2024,1.2021,1.2019,1.1855,1.1851,1.1847,1.1843,1.1715,1.1714,1.1712,1.1784,0,0,1.1708,1.1707,0,0,0,0,0,0,0,0,1.2184,1.2176,1.2068,1.2059,1.2047,1.195,1.201,1.194,1.1856,1.1926,1.1846,1.1841,1.1796,1.1788,1.1772,1.1778,1.1772,1.1708,1.1707,1.1706,1.1706,0,0,0,0,0,0,0,1.219,1.2181,1.2101,1.2067,1.2054,1.2013,1.1998,1.1997,1.1885,1.1919,1.1907,1.1894,1.179,1.1774,1.1768,1.177,1.1708,1.1706,1.1705,1.1705,1.183,1.1835,0,0,0,0,0,0,1.2211,1.2186,1.2105,1.2097,1.2107,1.2015,1.1997,1.1986,1.1885,1.1866,1.1897,1.1887,1.1779,1.177,1.1763,1.1843,1.1706,1.1705,1.1704,1.1826,1.1831,1.1836,0,0,0,0,0,0,1.2213,1.2205,1.2111,1.2138,1.2123,1.2017,1.2006,1.1985,1.1969,1.1868,1.1848,1.1902,1.1775,1.1765,1.178,1.1836,1.1704,1.1703,1.1821,1.1828,1.1834,1.2002,0,0,0,0,0,0,1.2217,1.2207,1.2233,1.214,1.2123,1.2131,1.2009,1.1985,1.1967,1.1952,1.1867,1.1849,1.1771,1.1784,1.1779,1.1831,1.1701,1.1816,1.1824,1.1832,1.1991,1.2013,1.2032,0,0,0,0,0,1.2222,1.2285,1.2235,1.2226,1.2152,1.2134,1.2124,1.2032,1.1972,1.1998,1.1933,1.1852,1.183,1.1787,1.178,1.1833,1.1812,1.1822,1.1831,1.1982,1.2009,1.2032,0,0,0,0,0,0,1.2386,1.2271,1.2214,1.2249,1.2203,1.2106,1.2135,1.2064,1.2034,1.2021,1.1908,1.1891,1.1921,1.1877,1.1831,1.1898,1.1809,1.1818,1.1926,1.1951,1.1971,1.1982,1.17,0,0,0,0,0,1.2427,1.2421,1.232,1.2361,1.234,1.2243,1.2231,1.2165,1.2112,1.2092,1.2028,1.1981,1.1963,1.1954,1.1932,1.1983,1.1964,1.2016,1.2037,1.2054,1.2064,1.209,1.2113,1.1867,1.1867,1.1867,0,0,1.251,1.2446,1.2449,1.2392,1.2348,1.2346,1.2227,1.2229,1.2226,1.2092,1.2103,1.2055,1.1995,1.203,1.2042,1.1994,1.2127,1.2066,1.2081,1.2081,1.2103,1.2126,1.2147,1.1874,1.1873,1.1871,0,0,1.2662,1.2612,1.2641,1.26,1.2536,1.247,1.2478,1.2392,1.2355,1.2364,1.2264,1.226,1.2231,1.2193,1.217,1.2309,1.2235,1.2305,1.2414,1.2441,1.2461,1.2477,1.253,1.255,1.2314,1.2315,1.2315,0,1.2774,1.2766,1.2666,1.2675,1.2654,1.2532,1.2562,1.2527,1.2459,1.2448,1.2395,1.2359,1.2309,1.2335,1.2369,1.2353,1.236,1.2315,1.2466,1.2482,1.2496,1.2545,1.2565,1.2324,1.2323,1.2322,1.2321,0,1.2909,1.2905,1.2937,1.2875,1.2857,1.2877,1.2781,1.2775,1.271,1.2651,1.2664,1.26,1.2564,1.2565,1.2501,1.2582,1.2555,1.2486,1.2395,1.253,1.2575,1.2592,1.2337,1.2334,1.2331,1.2329,0,0,1.3162,1.3045,1.3058,1.303,1.295,1.2945,1.296,1.2925,1.2924,1.2881,1.2892,1.2871,1.2807,1.2782,1.2713,1.2737,1.2855,1.2664,1.2661,1.2705,1.2944,1.2999,1.3022,1.2804,1.2807,1.2809,1.295,0,1.3301,1.3319,1.323,1.3273,1.327,1.3154,1.3167,1.3121,1.3066,1.3056,1.2994,1.2983,1.2897,1.2882,1.29,1.2837,1.2902,1.2825,1.2816,1.2817,1.2838,1.3044,1.3102,1.3238,1.2966,1.2969,1.2971,0,1.3465,1.3433,1.3476,1.3396,1.3391,1.3404,1.3367,1.3357,1.3303,1.3261,1.3234,1.3154,1.3165,1.3076,1.309,1.304,1.303,1.2999,1.3002,1.3,1.2904,1.3052,1.3279,1.3301,1.2997,1.2995,1.2993,0,1.365,1.3616,1.3638,1.3616,1.3523,1.3536,1.3497,1.3438,1.3424,1.339,1.3381,1.3349,1.3333,1.3311,1.3226,1.3169,1.3251,1.3155,1.3219,1.3222,1.3244,1.3245,1.3477,1.3233,1.3233,1.3233,1.3232,0,1.3816,1.3848,1.372,1.3734,1.3767,1.3664,1.3699,1.3649,1.3598,1.3602,1.3498,1.3504,1.339,1.3383,1.3316,1.334,1.3333,1.3301,1.3284,1.3312,1.3317,1.3307,1.3297,1.3238,1.3237,1.3236,1.3235,0,1.4029,1.3944,1.3961,1.3871,1.3849,1.3878,1.3801,1.3811,1.3749,1.3755,1.3751,1.3655,1.3642,1.3554,1.352,1.3476,1.3526,1.3487,1.3545,1.3534,1.3605,1.3601,1.3841,1.3869,1.3605,1.3608,1.361,0,1.4142,1.4164,1.4077,1.4072,1.4039,1.4031,1.4016,1.3916,1.3905,1.3845,1.3864,1.3842,1.382,1.3804,1.3732,1.3707,1.367,1.3756,1.3665,1.3695,1.3675,1.3677,1.368,1.3776,1.378,1.3782,1.3784,0,1.4354,1.4311,1.4293,1.4262,1.4247,1.4217,1.4181,1.4183,1.4072,1.4066,1.4051,1.4034,1.4001,1.3982,1.3944,1.3905,1.3829,1.3813,1.3827,1.3859,1.3892,1.3879,1.3601,1.3809,1.3806,1.3805,1.3803,1.3802,1.4522,1.4538,1.448,1.4464,1.4426,1.4396,1.4401,1.4341,1.4327,1.4292,1.4234,1.4229,1.4175,1.4116,1.4084,1.4079,1.4034,1.4054,1.4059,1.4067,1.4083,1.3891,1.4071,1.4071,1.407,1.4069,1.4069,0,1.4732,1.4689,1.4675,1.4629,1.4617,1.4544,1.4501,1.4497,1.4493,1.4449,1.443,1.4415,1.4396,1.4323,1.4297,1.4307,1.4272,1.4304,1.4304,1.4297,1.4123,1.4115,1.4334,1.4334,1.4334,1.4334,1.4334,1.4334,1.4839,1.4862,1.4813,1.4817,1.4773,1.4768,1.475,1.4722,1.4686,1.4674,1.4659,1.4611,1.4556,1.4525,1.4506,1.4484,1.4481,1.4527,1.4495,1.4334,1.4309,1.4285,1.4277,1.4526,1.4526,1.4669,1.4671,1.4672]},{"header":{"parameterUnit":"m.s-1","parameterCategory":1,"la1":30.2991,"la2":30.254,"lo1":-89.0895,"lo2":-89.0444,"dy":0.0017,"dx":0.0017,"nx":28,"ny":28,"refTime":"2024-08-11T21:00:00:Z","depth":0,"parameterNumber":3,"parameterNumberName":"V-component_of_WINDS"},"data":[0,0,0,0,0,0,0,0,0,0,0,0,0,0,0,0,0,0,0,0,0,0,0,0,0,0,0,0,0,0,0,0,0,0,0,0,0,0,0,0,0,0,0,0,0,0,0,0,0,0,0,0,0,0,0,0,0,0,-2.5564,-2.5564,0,-2.56,-2.56,-2.5601,-2.5557,-2.5556,-2.5554,-2.5552,-2.5588,-2.559,-2.5593,0,0,0,0,0,0,0,0,0,0,0,0,0,-2.5454,-2.5456,-2.5564,-2.5564,-2.5564,-2.56,-2.5601,-2.5601,-2.5557,-2.5555,-2.5553,-2.5552,-2.5587,-2.559,-2.5593,0,0,0,0,0,0,0,0,0,0,0,0,0,-2.5497,-2.5457,-2.5563,-2.5547,-2.5546,-2.56,-2.5601,-2.5601,-2.5558,-2.5555,-2.5553,-2.5551,-2.5586,-2.559,-2.5593,-2.5664,0,0,-2.5604,-2.5606,0,0,0,0,0,0,0,0,-2.5495,-2.5501,-2.5549,-2.5548,-2.5547,-2.5572,-2.5575,-2.5622,-2.5558,-2.5553,-2.5552,-2.555,-2.5584,-2.5588,-2.56,-2.5666,-2.5668,-2.5605,-2.5607,-2.5609,-2.561,0,0,0,0,0,0,0,-2.5492,-2.5499,-2.5578,-2.555,-2.5549,-2.5537,-2.5541,-2.5584,-2.5582,-2.5554,-2.555,-2.5555,-2.5583,-2.5597,-2.56,-2.5668,-2.5605,-2.5608,-2.561,-2.5612,-2.5794,-2.5797,0,0,0,0,0,0,-2.5491,-2.5497,-2.5577,-2.5579,-2.5515,-2.5541,-2.5545,-2.5566,-2.5581,-2.5581,-2.5558,-2.5553,-2.5591,-2.5596,-2.5602,-2.5686,-2.5608,-2.5612,-2.5614,-2.5791,-2.5795,-2.5798,0,0,0,0,0,0,-2.5489,-2.5499,-2.5575,-2.5537,-2.5546,-2.5546,-2.557,-2.5568,-2.5581,-2.5584,-2.5584,-2.5572,-2.559,-2.5596,-2.5649,-2.5686,-2.5614,-2.5617,-2.5788,-2.5792,-2.5796,-2.5855,0,0,0,0,0,0,-2.5486,-2.5498,-2.5526,-2.5538,-2.5548,-2.5623,-2.5572,-2.5571,-2.5588,-2.5583,-2.5597,-2.5597,-2.5588,-2.5644,-2.5653,-2.569,-2.562,-2.5785,-2.579,-2.5795,-2.585,-2.586,-2.587,0,0,0,0,0,-2.5482,-2.554,-2.5527,-2.5537,-2.5583,-2.5625,-2.5631,-2.562,-2.5591,-2.5619,-2.562,-2.5597,-2.5681,-2.565,-2.5659,-2.5698,-2.5783,-2.5789,-2.5794,-2.5845,-2.5858,-2.5869,0,0,0,0,0,0,-2.5531,-2.5542,-2.5527,-2.5591,-2.5608,-2.5618,-2.5652,-2.5634,-2.5659,-2.5653,-2.5638,-2.5641,-2.5697,-2.5703,-2.5668,-2.5768,-2.5727,-2.5735,-2.5762,-2.5775,-2.5784,-2.5782,-2.5623,0,0,0,0,0,-2.555,-2.5584,-2.5591,-2.5647,-2.5656,-2.5653,-2.5671,-2.5661,-2.5677,-2.5684,-2.5689,-2.5705,-2.5735,-2.5755,-2.5783,-2.585,-2.5853,-2.5882,-2.5892,-2.59,-2.5907,-2.5943,-2.5956,-2.5817,-2.5817,-2.5817,0,0,-2.5588,-2.5598,-2.562,-2.5657,-2.5668,-2.5704,-2.5659,-2.5698,-2.5724,-2.5689,-2.574,-2.5744,-2.5761,-2.5822,-2.5849,-2.5828,-2.5946,-2.5908,-2.5914,-2.5917,-2.595,-2.5963,-2.5975,-2.5821,-2.582,-2.582,0,0,-2.5675,-2.5686,-2.5734,-2.5747,-2.5765,-2.5763,-2.5774,-2.5787,-2.5789,-2.584,-2.5815,-2.5845,-2.5897,-2.591,-2.5923,-2.6016,-2.5995,-2.6025,-2.6077,-2.6112,-2.6123,-2.6133,-2.6166,-2.6178,-2.6033,-2.6033,-2.6033,0,-2.572,-2.5772,-2.576,-2.5802,-2.5818,-2.579,-2.5838,-2.585,-2.5877,-2.5889,-2.5865,-2.593,-2.594,-2.6003,-2.6025,-2.6037,-2.6049,-2.6023,-2.6123,-2.6132,-2.6141,-2.6172,-2.6185,-2.6036,-2.6036,-2.6035,-2.6035,0,-2.5826,-2.5863,-2.5899,-2.5927,-2.5947,-2.5992,-2.5986,-2.6008,-2.5997,-2.5997,-2.6048,-2.6058,-2.6088,-2.6102,-2.6091,-2.6163,-2.615,-2.6125,-2.6084,-2.6158,-2.6187,-2.6199,-2.6041,-2.604,-2.6039,-2.6038,0,0,-2.5945,-2.5965,-2.5979,-2.5991,-2.6009,-2.6037,-2.608,-2.6109,-2.6129,-2.6148,-2.6183,-2.6228,-2.6205,-2.622,-2.621,-2.6241,-2.6314,-2.6213,-2.6213,-2.6231,-2.6394,-2.6412,-2.6426,-2.63,-2.6302,-2.6304,-2.6392,0,-2.6032,-2.6107,-2.6098,-2.6169,-2.6203,-2.6177,-2.6214,-2.6229,-2.623,-2.6258,-2.6259,-2.6291,-2.6259,-2.6268,-2.6297,-2.6299,-2.6346,-2.6292,-2.6332,-2.6334,-2.6328,-2.6442,-2.6461,-2.6544,-2.6404,-2.6406,-2.6407,0,-2.6144,-2.6168,-2.6244,-2.6257,-2.6271,-2.6304,-2.633,-2.6358,-2.6374,-2.6373,-2.639,-2.6375,-2.6417,-2.6375,-2.6433,-2.6396,-2.6412,-2.6416,-2.6418,-2.6421,-2.6375,-2.6447,-2.657,-2.6583,-2.6425,-2.6423,-2.6422,0,-2.6223,-2.6274,-2.6326,-2.6337,-2.6354,-2.6378,-2.6386,-2.64,-2.6418,-2.6441,-2.6452,-2.648,-2.6494,-2.6515,-2.6508,-2.6478,-2.6567,-2.6524,-2.6566,-2.6567,-2.6586,-2.6585,-2.6713,-2.6597,-2.6596,-2.6596,-2.6596,0,-2.6321,-2.6368,-2.6361,-2.6393,-2.6445,-2.6433,-2.6484,-2.6489,-2.6502,-2.6533,-2.6512,-2.6542,-2.653,-2.6559,-2.6553,-2.6601,-2.6608,-2.6608,-2.6606,-2.661,-2.661,-2.6619,-2.6613,-2.6599,-2.6599,-2.6598,-2.6598,0,-2.6418,-2.6415,-2.647,-2.6482,-2.6486,-2.6523,-2.6533,-2.6562,-2.6562,-2.6602,-2.6611,-2.661,-2.6643,-2.6637,-2.6674,-2.667,-2.673,-2.6721,-2.6725,-2.6723,-2.6765,-2.6761,-2.6904,-2.6922,-2.6794,-2.6796,-2.6797,0,-2.6481,-2.6516,-2.6532,-2.6552,-2.6562,-2.6595,-2.6614,-2.6604,-2.6624,-2.6645,-2.6672,-2.6703,-2.6728,-2.6782,-2.6784,-2.6812,-2.6803,-2.6851,-2.6807,-2.681,-2.6803,-2.6801,-2.6805,-2.686,-2.6861,-2.6862,-2.6863,0,-2.6592,-2.6589,-2.6618,-2.6646,-2.6669,-2.669,-2.671,-2.6727,-2.6719,-2.6742,-2.6776,-2.6796,-2.6833,-2.6864,-2.689,-2.6898,-2.6879,-2.6877,-2.6888,-2.6893,-2.6893,-2.6893,-2.6749,-2.6874,-2.6873,-2.6872,-2.6871,-2.6871,-2.6674,-2.6704,-2.672,-2.6752,-2.6766,-2.6784,-2.6813,-2.6816,-2.6845,-2.6875,-2.6867,-2.6906,-2.6921,-2.6954,-2.6964,-2.6994,-2.6976,-2.6992,-2.6996,-2.7,-2.7005,-2.6889,-2.6998,-2.6998,-2.6998,-2.6998,-2.6997,0,-2.6784,-2.6793,-2.6823,-2.6851,-2.6876,-2.6857,-2.6878,-2.69,-2.6934,-2.695,-2.6975,-2.7014,-2.7044,-2.7049,-2.7078,-2.7101,-2.7093,-2.7108,-2.7106,-2.7108,-2.702,-2.7007,-2.7114,-2.7114,-2.7114,-2.7114,-2.7114,-2.7114,-2.6844,-2.6895,-2.6894,-2.6951,-2.6959,-2.6997,-2.701,-2.7027,-2.704,-2.7085,-2.711,-2.7113,-2.7125,-2.7154,-2.7181,-2.7181,-2.7193,-2.7212,-2.7209,-2.7126,-2.7115,-2.7103,-2.7092,-2.7215,-2.7215,-2.7295,-2.7296,-2.7297]}]]